Weather History for KFNT - February, 2014

Change the Weather History Date:

Thursday, February 27, 2014

  Actual Average Record
Temperature  
Mean Temperature 2 °F 28 °F  
Max Temperature 14 °F 36 °F 58 °F (1932)
Min Temperature -11 °F 19 °F -17 °F (2015)
Degree Days  
Heating Degree Days 63 37  
Month to date heating degree days 1304 1086  
Since 1 July heating degree days 5457 5050  
Cooling Degree Days 0 0  
Month to date cooling degree days 0 0  
Year to date cooling degree days 0 0  
Moisture  
Dew Point -1 °F    
Average Humidity 63    
Maximum Humidity 80    
Minimum Humidity 45    
Precipitation  
Precipitation 0.03 in 0.06 in 0.81 in (1948)
Month to date precipitation 1.48 1.42  
Year to date precipitation 4.01 3.05  
Snow  
Snow 0.90 in 0.40 in 2.20 in (1954)
Month to date snowfall 21.8 10.5  
Since 1 July snowfall 73.2 38.3  
Snow Depth 11.00 in    
Sea Level Pressure  
Sea Level Pressure 29.74 in    
Wind  
Wind Speed 14 mph (West)    
Max Wind Speed 31 mph    
Max Gust Speed 37 mph    
Visibility 6 miles    
Events Fog , Snow    
T = Trace of Precipitation, MM = Missing Value Source: NWS Daily Summary

Daily Weather History Graph

Daily Weather History Graph

Search for Another Location

Airport or City:

Trip Planner

Search our weather history database for the weather conditions in past years. The results will help you decide how hot, cold, wet, or windy it might be!

Date:

Astronomy

Feb. 27, 2014 Rise Set
Actual Time 7:14 AM EST 6:21 PM EST
Civil Twilight 6:45 AM EST 6:50 PM EST
Nautical Twilight 6:12 AM EST 7:23 PM EST
Astronomical Twilight 5:40 AM EST 7:56 PM EST
Moon 5:47 AM EST (2/27) 4:45 PM EST (2/27)
Length of Visible Light 12h 04m
Length of Day
11h 07m
Waning Crescent, 4% of the Moon is Illuminated
Feb 27
Waning Crescent
Mar 1
New
Mar 8
First Quarter
Mar 16
Full
Mar 23
Last Quarter

Hourly Weather History & Observations

Time (EST) Temp. Windchill Dew Point Humidity Pressure Visibility Wind Dir Wind Speed Gust Speed Precip Events Conditions
12:25 AM 10.9 °F -5.9 °F 3.0 °F 70% 29.55 in 1.8 mi SW 16.1 mph - 0.00 in Snow Light Snow
12:33 AM 10.9 °F -3.4 °F 3.0 °F 70% 29.55 in 2.5 mi SW 11.5 mph 21.9 mph 0.00 in Snow Light Snow
12:42 AM 10.9 °F -4.1 °F 3.0 °F 70% 29.54 in 4.0 mi SW 12.7 mph 23.0 mph 0.00 in Snow Light Snow
12:53 AM 10.9 °F -5.9 °F 3.9 °F 73% 29.58 in 1.5 mi SW 16.1 mph 24.2 mph 0.00 in Snow Light Snow
1:30 AM 10.9 °F -4.7 °F 5.0 °F 77% 29.51 in 2.5 mi SW 13.8 mph - 0.00 in Snow Light Snow
1:53 AM 12.0 °F -3.4 °F 6.1 °F 77% 29.55 in 3.0 mi SW 13.8 mph 20.7 mph 0.00 in Snow Light Snow
2:02 AM 12.0 °F -5.1 °F 6.1 °F 77% 29.50 in 2.5 mi SW 17.3 mph 24.2 mph 0.00 in Snow Light Snow
2:14 AM 12.0 °F -4.0 °F 6.1 °F 77% 29.49 in 4.0 mi SW 15.0 mph - 0.00 in Snow Light Snow
2:32 AM 12.0 °F -2.7 °F 6.1 °F 77% 29.49 in 4.0 mi SW 12.7 mph - 0.00 in Snow Light Snow
2:42 AM 12.9 °F -0.9 °F 6.1 °F 74% 29.48 in 1.8 mi SW 11.5 mph 21.9 mph 0.00 in Snow Light Snow
2:53 AM 12.9 °F -2.2 °F 6.1 °F 74% 29.52 in 2.0 mi SW 13.8 mph - 0.00 in Snow Light Snow
3:00 AM 12.9 °F -0.9 °F 7.0 °F 77% 29.47 in 1.2 mi SW 11.5 mph - N/A Snow Light Snow
3:25 AM 12.9 °F -0.2 °F 7.0 °F 77% 29.47 in 2.5 mi WSW 10.4 mph - 0.00 in Snow Light Snow
3:53 AM 12.9 °F -0.9 °F 7.0 °F 77% 29.52 in 2.5 mi SW 11.5 mph - 0.00 in Snow Light Snow
4:10 AM 12.9 °F -0.2 °F 8.1 °F 81% 29.47 in 4.0 mi WSW 10.4 mph - 0.00 in Snow Light Snow
4:44 AM 14.0 °F 1.2 °F 8.1 °F 77% 29.48 in 1.8 mi West 10.4 mph - 0.00 in Snow Light Snow
4:53 AM 14.0 °F 2.9 °F 8.1 °F 77% 29.53 in 0.8 mi West 8.1 mph - 0.00 in Snow Light Snow
5:12 AM 14.0 °F -1.4 °F 8.1 °F 77% 29.50 in 1.2 mi West 15.0 mph - 0.00 in Snow Light Snow
5:18 AM 12.9 °F -1.6 °F 8.1 °F 81% 29.50 in 3.0 mi West 12.7 mph - 0.00 in Snow Light Snow
5:25 AM 14.0 °F -1.4 °F 8.1 °F 77% 29.50 in 1.8 mi West 15.0 mph - 0.00 in Snow Light Snow
5:36 AM 12.9 °F -2.2 °F 9.0 °F 84% 29.51 in 0.5 mi West 13.8 mph - 0.00 in Fog , Snow Snow
5:51 AM 12.2 °F -4.3 °F 8.6 °F 85% 29.51 in 2.0 mi West 16.1 mph - 0.00 in Snow Light Snow
5:52 AM 12.0 °F -4.5 °F 7.0 °F 80% 29.56 in 2.5 mi West 16.1 mph - 0.00 in Snow Light Snow
5:59 AM 12.0 °F -4.0 °F 6.1 °F 77% 29.52 in 7.0 mi West 15.0 mph - 0.00 in   Mostly Cloudy
6:23 AM 12.0 °F -7.7 °F 5.0 °F 73% 29.53 in 1.8 mi West 24.2 mph 29.9 mph 0.00 in Snow Light Snow
6:30 AM 12.0 °F -9.8 °F 7.0 °F 80% 29.54 in 0.2 mi NW 31.1 mph 36.8 mph 0.00 in Snow Heavy Snow
6:41 AM 9.0 °F -10.0 °F 3.9 °F 80% 29.56 in 1.5 mi NNW 19.6 mph 32.2 mph 0.00 in Snow Light Snow
6:53 AM 8.1 °F -9.6 °F 1.0 °F 73% 29.63 in 10.0 mi NNW 16.1 mph 28.8 mph 0.00 in Snow Light Snow
7:07 AM 8.1 °F -11.2 °F -2.0 °F 64% 29.60 in 10.0 mi NW 19.6 mph 28.8 mph 0.00 in   Mostly Cloudy
7:53 AM 7.0 °F -14.9 °F -5.1 °F 58% 29.71 in 10.0 mi NNW 25.3 mph 33.4 mph 0.00 in   Scattered Clouds
8:53 AM 5.0 °F -17.1 °F -9.0 °F 52% 29.79 in 10.0 mi NW 24.2 mph 34.5 mph N/A   Overcast
9:53 AM 6.1 °F -16.1 °F -7.1 °F 55% 29.84 in 10.0 mi NW 25.3 mph 32.2 mph N/A   Clear
10:24 AM 6.1 °F -13.8 °F -4.0 °F 63% 29.81 in 1.5 mi North 19.6 mph - N/A Snow Blowing Snow
10:53 AM 6.1 °F -14.3 °F -6.0 °F 58% 29.90 in 10.0 mi NW 20.7 mph 31.1 mph N/A   Scattered Clouds
11:53 AM 6.1 °F -16.5 °F -8.0 °F 53% 29.94 in 10.0 mi WNW 26.5 mph 32.2 mph N/A   Partly Cloudy
12:00 PM 6.1 °F -16.5 °F -7.1 °F 55% 29.89 in 10.0 mi WNW 26.5 mph 35.7 mph N/A   Haze
12:25 PM 6.1 °F -15.2 °F -9.9 °F 48% 29.91 in 2.5 mi WNW 23.0 mph 33.4 mph N/A   Haze
12:36 PM 7.0 °F -12.1 °F -9.0 °F 48% 29.92 in 10.0 mi WNW 18.4 mph 31.1 mph N/A   Mostly Cloudy
12:53 PM 7.0 °F -13.1 °F -8.0 °F 51% 29.99 in 10.0 mi WNW 20.7 mph 33.4 mph N/A   Overcast
1:53 PM 7.0 °F -12.6 °F -11.0 °F 44% 30.01 in 10.0 mi WNW 19.6 mph 29.9 mph N/A   Partly Cloudy
2:53 PM 8.1 °F -11.2 °F -9.0 °F 46% 30.04 in 10.0 mi WNW 19.6 mph 25.3 mph N/A   Scattered Clouds
3:53 PM 6.1 °F -12.2 °F -9.9 °F 48% 30.08 in 10.0 mi NW 16.1 mph 23.0 mph N/A   Scattered Clouds
4:53 PM 7.0 °F -9.8 °F -7.1 °F 53% 30.10 in 10.0 mi NW 13.8 mph - N/A   Overcast
5:53 PM 6.1 °F -7.8 °F -11.0 °F 45% 30.13 in 10.0 mi NW 9.2 mph - N/A   Scattered Clouds
6:53 PM 3.9 °F -9.4 °F -11.0 °F 50% 30.16 in 10.0 mi NW 8.1 mph - N/A   Clear
7:53 PM 1.9 °F -9.2 °F -11.0 °F 55% 30.19 in 10.0 mi WNW 5.8 mph - N/A   Clear
8:53 PM 1.0 °F -10.3 °F -11.9 °F 55% 30.21 in 10.0 mi West 5.8 mph - N/A   Clear
9:53 PM -0.0 °F -7.9 °F -11.9 °F 57% 30.23 in 10.0 mi NW 3.5 mph - N/A   Clear
10:53 PM -7.1 °F - -15.0 °F 68% 30.25 in 10.0 mi Calm Calm - N/A   Clear
11:53 PM -7.1 °F - -14.1 °F 72% 30.26 in 10.0 mi Calm Calm - N/A   Clear